Theta_e
354 352 351 351 351 353 354 356 351 351 353 351 351 351 350 350 352 351 354 364 364 363 362 362 362 362 360 357 356 356 354 354 352 353 353 353 355 356 357 359 358 356 360
356 353 355 354 357 360 358 359 354 355 354 350 350 351 353 352 354 358 351 360 365 364 364 364 365 365 362 360 358 358 356 354 354 354 355 354 355 356 357 357 357 357 357
362 362 356 355 358 363 364 361 359 361 356 355 354 354 354 356 355 356 354 355 360 366 366 365 365 365 364 362 360 359 358 358 357 357 357 355 354 355 356 358 358 358 359
363 361 357 357 358 360 358 359 357 357 358 359 355 357 358 357 360 358 358 358 361 357 364 366 365 364 365 363 360 360 359 357 357 358 357 356 355 355 355 358 357 358 356
360 361 356 357 361 363 360 359 363 362 355 355 355 355 361 356 357 355 358 361 365 362 358 363 364 363 364 361 361 360 356 355 352 352 354 355 357 357 357 356 357 357 357
363 362 358 363 362 359 359 358 360 358 356 355 353 352 355 357 360 358 359 359 364 363 364 358 363 360 363 364 362 360 357 352 353 350 350 353 355 356 356 356 356 357 357
362 368 360 362 363 360 361 361 361 360 355 358 347 349 356 356 354 358 357 359 360 357 362 365 362 361 362 363 362 362 359 355 353 350 349 348 353 354 355 355 356 357 358
365 365 366 360 359 359 365 364 368 362 360 358 351 350 343 350 356 356 356 355 355 357 359 361 363 364 364 362 364 362 361 358 356 354 350 349 349 352 353 355 355 354 357
366 367 366 365 363 359 355 360 361 362 359 357 358 357 347 347 349 355 353 352 355 353 353 360 360 362 363 362 363 363 361 359 358 357 355 353 350 352 352 353 355 356 355
365 364 364 365 367 367 367 365 362 361 366 353 354 361 359 357 343 349 347 351 352 351 353 352 353 358 360 362 363 363 360 356 356 358 356 355 354 351 350 351 353 352 354
365 363 366 365 366 361 364 363 361 364 358 353 348 358 359 359 353 345 343 344 346 355 352 351 349 352 359 359 361 360 356 354 354 356 355 355 355 354 354 351 352 351 348
361 365 365 366 366 365 361 356 356 355 357 363 358 357 366 359 353 349 345 343 343 345 346 344 344 348 356 357 358 356 355 354 353 353 355 356 356 356 355 355 354 349 347
356 364 366 366 360 361 357 353 355 355 355 357 358 354 356 355 352 346 343 341 335 333 335 339 346 349 351 354 356 359 356 354 352 350 350 351 354 356 357 357 356 356 354
358 362 362 360 358 357 352 348 346 348 353 354 353 356 352 350 348 345 338 331 326 326 335 336 342 347 349 355 356 355 358 354 353 351 349 349 350 352 353 355 354 354 354
360 365 361 361 357 355 350 347 341 346 352 353 352 351 349 343 337 337 336 336 332 326 327 342 338 350 347 356 348 355 358 352 352 351 349 347 347 349 351 352 352 351 351
367 364 365 360 356 353 349 347 344 345 346 343 338 344 343 339 340 342 340 340 338 334 328 335 338 343 349 347 350 350 352 351 349 349 349 346 345 346 347 349 349 349 350
366 368 368 363 356 352 346 346 348 346 342 343 343 344 344 346 341 339 338 338 337 337 332 334 338 348 346 346 345 348 349 348 349 346 347 347 344 342 344 345 346 346 346
366 368 366 363 357 352 348 347 344 342 343 343 345 345 343 340 342 343 337 341 337 340 334 336 342 338 344 345 349 347 345 340 349 344 344 344 343 342 340 341 341 341 340
366 367 364 362 357 352 348 348 347 346 345 345 346 344 342 342 342 339 337 334 334 334 335 330 330 332 335 338 344 348 350 349 342 344 341 342 342 345 343 339 336 335 334
367 364 363 361 357 352 348 347 347 347 345 345 345 344 343 342 341 339 336 338 338 335 335 330 327 327 330 337 338 334 334 340 339 340 345 346 345 342 340 339 338 335 330
362 362 361 359 358 352 344 347 346 344 344 344 343 343 342 340 334 333 332 340 339 333 326 323 322 324 327 332 333 333 332 333 339 339 339 341 347 348 348 337 343 339 332
354 359 357 358 357 351 340 341 345 342 344 344 343 343 342 336 332 333 330 332 331 331 329 325 324 326 333 333 332 334 332 330 327 347 343 336 339 337 340 344 337 335 333
349 350 352 355 354 354 335 337 339 341 343 344 344 342 338 335 337 338 332 333 329 326 324 330 327 328 330 335 338 335 339 335 332 334 337 329 333 332 339 336 332 332 331
342 344 345 352 356 353 332 332 336 340 342 344 343 341 338 337 337 337 336 337 336 332 330 329 330 327 330 335 337 335 337 337 335 335 341 329 333 331 337 343 330 330 329
349 347 348 354 352 351 328 329 334 339 339 343 344 340 338 336 330 328 333 332 333 332 325 325 322 320 320 321 321 324 323 324 325 327 338 330 330 329 334 335 335 328 326
343 345 352 352 344 346 325 325 332 337 337 336 343 340 331 330 326 323 329 332 330 331 330 328 328 325 323 326 322 325 322 321 322 323 336 329 327 327 323 332 338 330 332
Wind_Speed
3 5 3 3 2 5 6 3 6 4 5 5 6 9 6 8 7 3 6 21 17 16 15 14 14 15 14 13 12 12 12 12 12 11 10 12 13 12 12 12 12 13 12
1 4 2 4 6 1 4 4 3 4 5 6 9 7 7 8 6 6 5 10 17 17 17 17 16 16 14 15 14 14 14 13 13 12 11 10 13 13 13 13 13 13 13
3 4 5 4 6 3 8 6 4 3 7 4 5 8 8 7 10 7 6 5 9 16 18 17 17 17 18 18 16 16 15 13 13 12 11 11 10 12 14 14 13 13 12
5 4 5 6 4 4 4 4 6 3 5 5 5 5 5 5 5 7 6 3 3 6 13 19 18 18 18 19 20 19 14 13 12 12 13 13 13 11 14 14 14 12 12
7 6 7 3 6 4 5 7 3 5 5 5 7 5 3 6 9 6 3 4 4 5 5 16 17 17 19 20 18 17 17 16 14 12 12 13 15 14 14 14 14 13 11
9 6 6 4 5 2 5 5 3 4 5 5 8 7 7 5 4 4 3 3 5 1 5 9 6 12 17 18 18 19 22 21 18 14 15 14 14 15 14 14 13 13 12
5 4 7 7 7 5 4 5 4 7 6 4 6 9 5 10 8 6 6 4 3 4 3 2 5 4 9 17 17 19 22 25 26 26 22 18 14 15 15 14 14 14 13
5 6 5 5 4 6 3 6 5 6 3 5 5 4 8 5 2 5 4 2 3 3 3 6 5 5 9 9 13 18 20 23 27 28 26 23 21 17 17 16 15 15 14
6 5 5 5 4 5 6 4 6 6 5 6 5 3 3 1 4 3 5 5 5 4 4 4 4 2 3 2 10 14 18 18 23 27 28 26 24 18 17 17 16 16 15
7 6 6 5 4 5 3 3 4 5 4 6 7 3 6 5 5 2 3 3 4 6 3 7 8 9 8 6 5 8 13 11 13 23 22 24 22 22 18 17 17 15 15
7 7 6 5 6 5 1 4 5 5 6 6 6 1 2 4 5 6 4 4 6 2 5 4 5 3 6 2 6 12 14 10 7 14 18 17 25 24 27 26 22 19 21
9 9 3 5 4 4 4 4 3 6 6 6 6 3 3 3 3 3 4 5 4 1 3 2 5 4 1 5 8 15 11 10 9 8 8 17 23 23 23 26 27 30 31
4 9 6 5 5 4 3 4 4 6 5 4 3 5 4 1 3 5 5 6 6 5 1 3 3 1 2 3 8 5 11 10 9 10 10 10 12 17 22 25 27 28 31
3 3 5 5 4 4 4 3 6 6 3 5 2 4 6 2 4 4 4 5 6 6 4 3 3 2 1 8 6 4 8 11 10 10 10 11 12 13 14 21 23 24 24
6 5 3 6 4 4 4 4 6 2 2 4 3 3 5 3 3 3 3 3 4 6 4 6 2 4 2 6 4 4 7 11 10 10 9 10 11 13 15 16 16 19 22
8 2 4 6 4 4 4 4 4 4 3 4 5 3 4 3 3 1 3 2 3 5 6 4 2 6 6 6 4 5 3 12 13 12 12 9 8 11 13 15 16 15 14
3 4 5 6 6 6 5 4 6 1 3 4 4 2 2 2 6 2 3 3 3 3 5 6 5 7 1 5 6 6 7 11 9 10 8 9 8 11 12 12 12 12 12
8 7 6 7 8 7 6 6 7 5 6 6 6 3 4 4 2 2 4 3 4 4 5 5 6 6 4 1 6 4 9 9 9 11 12 11 8 7 9 10 12 13 13
10 9 8 7 8 8 8 8 7 6 7 6 6 6 4 3 3 4 4 4 2 3 3 5 6 6 4 5 5 5 7 5 8 19 13 9 8 6 6 9 9 9 11
8 7 6 6 8 9 9 9 9 8 7 7 5 5 4 4 4 3 4 2 4 3 4 6 6 5 4 2 3 6 6 6 6 5 5 6 11 10 8 9 9 8 7
8 8 7 9 10 10 10 12 10 9 8 7 5 4 8 4 7 3 5 3 2 5 4 4 5 5 4 4 6 6 4 6 5 5 7 3 5 7 7 11 10 10 7
7 8 12 13 11 11 11 12 9 10 9 8 7 7 6 8 6 5 2 2 4 4 4 5 5 6 4 4 6 6 6 6 5 5 2 6 8 8 5 3 7 12 7
4 7 9 9 10 11 6 12 10 9 9 9 7 5 6 6 9 9 9 7 5 6 6 6 6 5 6 6 6 6 6 6 6 7 6 7 7 9 5 7 11 10 6
9 10 11 12 12 9 13 11 11 8 8 7 6 4 5 5 2 4 7 10 10 11 11 8 6 7 7 6 6 6 8 7 8 10 8 6 7 8 4 7 13 13 10
13 14 13 13 12 11 15 11 9 10 11 5 4 5 3 6 6 5 7 9 10 6 5 4 3 6 9 7 7 7 8 9 9 7 5 4 5 7 5 5 6 10 10
14 12 12 11 13 13 14 16 12 7 6 1 2 4 10 3 3 1 6 7 8 6 7 5 6 10 11 10 13 9 8 8 8 8 3 3 4 4 4 7 8 7 8
Wind_Direction
148 216 160 245 184 209 230 162 248 243 249 255 288 250 261 291 284 240 149 183 177 175 197 203 198 199 193 189 189 181 187 189 183 186 187 178 175 181 186 171 171 171 171
163 90 273 259 191 54 342 254 246 292 249 245 225 273 306 256 233 268 249 180 183 178 192 201 204 202 198 196 195 192 191 192 191 192 196 190 186 185 179 180 178 176 173
171 333 235 247 257 137 234 259 242 276 272 299 295 256 244 250 283 284 273 298 178 178 201 199 204 206 196 197 201 198 191 191 200 198 195 204 202 185 181 186 184 178 183
232 202 240 237 275 245 262 264 253 231 208 242 246 250 223 222 245 271 254 240 178 183 197 203 199 203 201 201 198 199 188 190 204 204 202 206 204 207 190 183 187 181 183
214 234 236 206 241 239 236 244 263 224 281 284 283 285 239 252 226 227 275 215 196 294 201 204 196 204 200 206 203 193 179 193 201 228 235 214 205 202 198 188 184 182 185
219 205 247 267 253 233 221 277 314 259 264 262 291 287 246 222 186 222 247 237 222 194 260 162 178 208 198 200 201 192 184 190 197 205 228 246 218 205 202 192 191 187 186
224 199 253 190 221 265 246 281 248 247 253 191 281 267 266 234 219 221 208 204 182 246 61 71 217 105 205 203 197 193 191 187 194 196 213 228 240 222 205 202 199 202 197
229 244 278 290 354 313 305 272 283 292 271 180 260 302 285 355 215 235 170 120 238 123 184 182 199 230 182 189 196 201 195 192 199 201 206 208 228 232 220 210 208 210 210
244 220 264 278 299 276 271 263 279 262 287 277 300 278 308 327 291 167 170 224 144 241 147 182 201 244 241 168 173 189 205 201 202 208 206 203 209 221 227 226 217 215 217
233 236 237 225 254 249 349 277 276 295 263 264 253 264 271 267 293 349 319 238 193 208 89 283 178 187 179 215 118 95 164 190 217 211 215 212 206 204 222 236 236 228 238
244 238 235 239 232 247 14 262 271 267 301 263 301 3 263 270 248 277 283 182 268 222 170 190 267 243 164 217 159 158 163 176 186 197 216 219 195 200 203 213 222 221 232
187 213 246 248 254 287 252 292 316 268 273 326 341 283 226 260 237 260 246 249 263 278 159 226 264 350 277 174 98 134 161 175 187 197 204 197 204 210 207 211 211 212 228
218 157 187 225 239 201 289 297 273 282 267 285 269 271 279 253 316 320 313 303 332 308 280 298 110 10 10 259 93 122 163 182 192 200 204 203 204 212 212 214 219 217 218
261 206 180 250 224 247 254 258 256 243 208 267 301 321 310 320 346 327 317 326 306 281 155 268 133 184 116 86 107 142 165 174 184 195 204 211 215 218 222 221 220 221 223
259 238 214 224 226 243 260 277 250 245 303 269 251 238 281 302 278 323 297 290 301 299 300 132 312 62 357 111 180 265 147 171 187 198 206 206 207 213 219 221 222 221 222
233 195 188 230 229 249 257 250 253 196 254 272 248 69 295 325 271 282 314 305 282 290 292 317 198 63 41 336 212 269 250 179 196 198 205 207 225 226 217 218 219 220 221
235 212 186 216 209 222 220 230 287 84 224 238 291 193 227 326 316 305 331 301 288 283 281 293 359 88 20 249 311 317 297 253 202 172 177 198 217 242 234 222 222 223 225
217 214 188 208 203 207 211 223 225 187 213 201 201 185 220 197 259 198 277 76 342 334 313 314 310 301 252 339 259 292 272 296 103 162 185 186 177 212 226 223 219 219 221
211 212 182 207 214 217 202 206 224 232 222 224 202 205 222 199 219 336 321 322 322 322 262 301 310 270 294 311 275 247 247 284 287 167 184 173 163 180 202 220 225 216 214
202 237 243 216 218 219 218 219 205 214 228 218 222 222 232 226 224 230 253 275 236 296 258 253 275 285 260 244 283 273 250 232 249 296 143 181 177 192 206 197 191 199 197
192 200 214 226 228 228 223 206 209 209 207 230 215 223 229 96 68 2 300 346 18 271 316 299 289 279 279 354 344 342 314 278 309 245 261 300 214 223 200 214 172 169 170
218 183 192 196 222 233 220 174 212 205 206 218 220 216 198 161 177 186 189 40 17 279 285 308 302 3 317 313 279 326 340 307 310 55 335 280 290 290 247 77 97 128 154
279 273 262 228 221 226 210 161 167 241 209 213 222 249 254 253 177 191 186 180 203 230 251 306 290 300 323 302 329 308 294 316 289 304 315 278 278 269 238 113 137 135 141
277 270 261 249 238 231 167 171 171 198 257 225 211 225 265 289 321 267 228 216 218 191 207 217 237 301 290 324 304 298 307 291 268 252 247 252 279 273 227 151 152 138 146
261 256 255 239 236 222 169 179 188 197 222 204 204 203 229 286 86 63 273 279 285 266 130 124 203 255 265 253 260 287 272 256 263 271 166 236 287 278 316 333 138 141 158
283 282 266 250 233 224 171 172 184 208 175 171 220 195 137 169 85 117 266 252 257 270 281 275 244 232 239 235 219 222 260 265 284 285 14 215 277 327 291 272 142 166 178